SL-3 DEB, 14229

Orbit data source: Space-Track

SL-3 DEB, 14229 is space debris in SSO originally from a launch on Sun, 24 Jul 1983 UTC launched from the Tyuratam Missile And Space Complex (TTMTR). Debris objects in space refer to the collection of defunct objects orbiting the Earth. Examples of debris include non-operational satellites, rocket bodies, and fragments generated from explosions, collisions, or faulty payload assembly.

Loading next visibility...
Identifier
14229, 1983-075D
Orbit
SSO
Country
Flag of CISCIS
Related business
Manufacturer
Unknown
Mission
Spacecraft
Bus & Motor
Unknown
Mass
Unknown
Launch date (UTC)
1983-07-24 (42 years ago)
Launch vehicle
Unknown
Launch site
Tyuratam Missile And Space Complex (TTMTR)
Object type
Payload
Rocket body
Debris
Shape & HBR
Unknown shape, 0.1 m
Radar Cross Section
Small (<0.1 m²)

Expand to show TLE details & history
Last TLE update: 12 hours ago

TLE from 12 hours ago
0 SL-3 DEB
1 14229U 83075D   25346.93459716  .00005029  00000-0  32017-3 0  9997
2 14229  97.8781 333.1377 0026975 241.4680 189.2719 15.08955549303331
Epoch: 2025-12-12T22:25Z
TLE epoch observation values (Epoch: 2025-12-12T22:25:49.194Z)
Latitude
69.28339°
Longitude
-106.52455°
Altitude
569.795 km
Speed
7.572 km/s
True Right ascension
20h 47m 11s
True Declination
69° 09' 58"
Sunlit
Object was in daylight at epoch
Visualization orbit readout
Latitude
Unknown
Longitude
Unknown
Altitude
Unknown
Speed
Unknown
Apparent Right ascension
Unknown
Apparent Declination
Unknown
Sunlit
N/A
Visualization observer readout
Local Sidereal Time
09:14:00
Azimuth
Unknown
Elevation
Unknown
Doppler factor
Unknown
Orbital elements
Apogee altitude
555.043 km
Perigee altitude
517.74 km
Semi-major axis
6,914.528 km
Eccentricity
0.0027
Inclination
97.8781°
RAAN
333.1377°
Arg. of periapsis
241.468°
True anomaly
189.22226°
Mean anomaly
189.2719°
Eccentric anomaly
189.24706°
Mean motion
3.77485 °/min
Orbital period
95.37 mins
BSTAR
0.00032017
Loading maneuver chart data...
Computing Atmospheric mass density...

Documentation

Showing up to 5 results
|